Time,TemperatureF,DewpointF,PressureIn,WindDirection,WindDirectionDegrees,WindSpeedMPH,WindSpeedGustMPH,Humidity,HourlyPrecipIn,Conditions,Clouds,dailyrainin,SoftwareType,DateUTC
2013-01-25 00:03:00,16.0,0.0,30.22,NW,310,10.0,24.0,48,0.00,,,0.00,,2013-01-25 05:03:00,
2013-01-25 00:12:00,16.0,0.0,30.22,NW,310,10.0,24.0,48,0.00,,,0.00,,2013-01-25 05:12:00,
2013-01-25 00:22:00,16.0,-1.0,30.22,NW,317,12.0,24.0,46,0.00,,,0.00,,2013-01-25 05:22:00,
2013-01-25 00:32:00,16.0,-1.0,30.22,NW,317,12.0,24.0,46,0.00,,,0.00,,2013-01-25 05:32:00,
2013-01-25 00:43:00,16.0,-1.0,30.22,NW,317,12.0,24.0,46,0.00,,,0.00,,2013-01-25 05:43:00,
2013-01-25 00:52:00,15.0,-2.0,30.22,NW,326,14.0,25.0,46,0.00,,,0.00,,2013-01-25 05:52:00,
2013-01-25 01:02:00,15.0,-2.0,30.22,NW,313,14.0,26.0,46,0.00,,,0.00,,2013-01-25 06:02:00,
2013-01-25 01:12:00,15.0,-2.0,30.22,NW,313,14.0,26.0,46,0.00,,,0.00,,2013-01-25 06:12:00,
2013-01-25 01:22:00,15.0,-2.0,30.22,NNW,333,17.0,32.0,47,0.00,,,0.00,,2013-01-25 06:22:00,
2013-01-25 01:32:00,14.0,-2.0,30.22,NW,320,7.0,23.0,48,0.00,,,0.00,,2013-01-25 06:32:00,
2013-01-25 01:42:00,14.0,-2.0,30.22,NW,320,7.0,23.0,48,0.00,,,0.00,,2013-01-25 06:42:00,
2013-01-25 01:52:00,14.0,-2.0,30.22,NW,317,7.0,23.0,49,0.00,,,0.00,,2013-01-25 06:52:00,
2013-01-25 02:02:00,14.0,-1.0,30.22,NNW,330,9.0,20.0,50,0.00,,,0.00,,2013-01-25 07:02:00,
2013-01-25 02:11:00,14.0,-1.0,30.22,NNW,330,9.0,20.0,50,0.00,,,0.00,,2013-01-25 07:11:00,
2013-01-25 02:22:00,14.0,-1.0,30.22,NW,322,17.0,23.0,51,0.00,,,0.00,,2013-01-25 07:22:00,
2013-01-25 02:32:00,14.0,0.0,30.22,NW,318,12.0,21.0,52,0.00,,,0.00,,2013-01-25 07:32:00,
2013-01-25 02:42:00,14.0,0.0,30.22,NW,318,12.0,21.0,52,0.00,,,0.00,,2013-01-25 07:42:00,
2013-01-25 02:52:00,14.0,0.0,30.22,NW,320,15.0,21.0,52,0.00,,,0.00,,2013-01-25 07:52:00,
2013-01-25 03:02:00,14.0,0.0,30.22,NW,325,10.0,16.0,54,0.00,,,0.00,,2013-01-25 08:02:00,
2013-01-25 03:12:00,14.0,0.0,30.22,NW,319,16.0,25.0,54,0.00,,,0.00,,2013-01-25 08:12:00,
2013-01-25 03:21:00,14.0,0.0,30.22,NW,319,16.0,25.0,54,0.00,,,0.00,,2013-01-25 08:21:00,
2013-01-25 03:32:00,14.0,1.0,30.22,NW,317,9.0,20.0,56,0.00,,,0.00,,2013-01-25 08:32:00,
2013-01-25 03:42:00,14.0,1.0,30.22,NW,317,9.0,20.0,56,0.00,,,0.00,,2013-01-25 08:42:00,
2013-01-25 03:52:00,14.0,1.0,30.40,NW,307,10.0,17.0,56,0.00,,,0.00,,2013-01-25 08:52:00,
2013-01-25 04:02:00,14.0,1.0,30.40,WNW,293,8.0,20.0,56,0.00,,,0.00,,2013-01-25 09:02:00,
2013-01-25 04:11:00,14.0,1.0,30.40,WNW,293,8.0,20.0,56,0.00,,,0.00,,2013-01-25 09:11:00,
2013-01-25 04:21:00,14.0,1.0,30.40,NW,310,13.0,20.0,56,0.00,,,0.00,,2013-01-25 09:21:00,
2013-01-25 04:32:00,14.0,2.0,30.40,WNW,300,7.0,17.0,57,0.00,,,0.00,,2013-01-25 09:32:00,
2013-01-25 04:42:00,14.0,2.0,30.40,WNW,300,7.0,17.0,57,0.00,,,0.00,,2013-01-25 09:42:00,
2013-01-25 04:52:00,14.0,2.0,30.40,WNW,292,9.0,15.0,58,0.00,,,0.00,,2013-01-25 09:52:00,
2013-01-25 05:02:00,14.0,2.0,30.40,NW,316,7.0,17.0,57,0.00,,,0.00,,2013-01-25 10:02:00,
2013-01-25 05:12:00,14.0,2.0,30.40,NW,316,7.0,17.0,57,0.00,,,0.00,,2013-01-25 10:12:00,
2013-01-25 05:22:00,13.0,1.0,30.40,NW,314,13.0,18.0,57,0.00,,,0.00,,2013-01-25 10:22:00,
2013-01-25 05:32:00,13.0,1.0,30.40,NW,326,8.0,16.0,58,0.00,,,0.00,,2013-01-25 10:32:00,
2013-01-25 05:42:00,13.0,1.0,30.40,NW,326,8.0,16.0,58,0.00,,,0.00,,2013-01-25 10:42:00,
2013-01-25 05:52:00,14.0,2.0,30.40,NW,306,9.0,13.0,58,0.00,,,0.00,,2013-01-25 10:52:00,
2013-01-25 06:03:00,13.0,1.0,30.40,WNW,290,9.0,14.0,59,0.00,,,0.00,,2013-01-25 11:03:00,
2013-01-25 06:11:00,13.0,1.0,30.40,WNW,290,9.0,14.0,59,0.00,,,0.00,,2013-01-25 11:11:00,
2013-01-25 06:22:00,14.0,2.0,30.40,WNW,302,12.0,16.0,59,0.00,,,0.00,,2013-01-25 11:22:00,
2013-01-25 06:33:00,14.0,2.0,30.40,WNW,302,11.0,20.0,59,0.00,,,0.00,,2013-01-25 11:33:00,
2013-01-25 06:42:00,14.0,2.0,30.40,WNW,302,11.0,20.0,59,0.00,,,0.00,,2013-01-25 11:42:00,
2013-01-25 06:52:00,13.0,1.0,30.40,NW,306,12.0,18.0,59,0.00,,,0.00,,2013-01-25 11:52:00,
2013-01-25 07:02:00,14.0,3.0,30.40,WNW,300,10.0,15.0,60,0.00,,,0.00,,2013-01-25 12:02:00,
2013-01-25 07:12:00,14.0,3.0,30.40,WNW,300,10.0,15.0,60,0.00,,,0.00,,2013-01-25 12:12:00,
2013-01-25 07:22:00,14.0,3.0,30.40,WNW,300,10.0,15.0,60,0.00,,,0.00,,2013-01-25 12:22:00,
2013-01-25 07:32:00,14.0,3.0,30.40,NNW,328,8.0,20.0,60,0.00,,,0.00,,2013-01-25 12:32:00,
2013-01-25 07:42:00,14.0,3.0,30.40,NNW,328,8.0,20.0,60,0.00,,,0.00,,2013-01-25 12:42:00,
2013-01-25 07:53:00,14.0,3.0,30.40,NNW,337,10.0,15.0,60,0.00,,,0.00,,2013-01-25 12:53:00,
2013-01-25 08:03:00,14.0,3.0,30.40,NNW,333,10.0,14.0,60,0.00,,,0.00,,2013-01-25 13:03:00,
2013-01-25 08:12:00,14.0,3.0,30.40,NNW,333,10.0,14.0,60,0.00,,,0.00,,2013-01-25 13:12:00,
2013-01-25 08:22:00,14.0,3.0,30.40,NNW,329,9.0,14.0,61,0.00,,,0.00,,2013-01-25 13:22:00,
2013-01-25 08:32:00,14.0,3.0,30.40,NNW,330,6.0,14.0,61,0.00,,,0.00,,2013-01-25 13:32:00,
2013-01-25 08:43:00,14.0,3.0,30.40,NNW,330,6.0,14.0,61,0.00,,,0.00,,2013-01-25 13:43:00,
2013-01-25 08:53:00,14.0,3.0,30.40,NW,326,10.0,16.0,60,0.00,,,0.00,,2013-01-25 13:53:00,
2013-01-25 09:03:00,15.0,4.0,30.40,NW,325,6.0,15.0,60,0.00,,,0.00,,2013-01-25 14:03:00,
2013-01-25 09:12:00,15.0,4.0,30.40,NW,325,6.0,15.0,60,0.00,,,0.00,,2013-01-25 14:12:00,
2013-01-25 09:23:00,15.0,3.0,30.40,NW,314,2.0,12.0,59,0.00,,,0.00,,2013-01-25 14:23:00,
2013-01-25 09:33:00,15.0,3.0,30.40,NW,314,2.0,12.0,59,0.00,,,0.00,,2013-01-25 14:33:00,
2013-01-25 09:42:00,15.0,3.0,30.40,NW,314,2.0,12.0,59,0.00,,,0.00,,2013-01-25 14:42:00,
2013-01-25 09:53:00,15.0,3.0,30.40,NW,314,2.0,12.0,59,0.00,,,0.00,,2013-01-25 14:53:00,
2013-01-25 10:02:00,16.0,3.0,30.40,NNW,335,5.0,8.0,57,0.00,,,0.00,,2013-01-25 15:02:00,
2013-01-25 10:13:00,16.0,3.0,30.40,NNW,335,5.0,8.0,57,0.00,,,0.00,,2013-01-25 15:13:00,
2013-01-25 10:22:00,16.0,3.0,30.40,NW,323,5.0,10.0,57,0.00,,,0.00,,2013-01-25 15:22:00,
2013-01-25 10:33:00,17.0,4.0,30.40,North,358,3.0,8.0,57,0.00,,,0.00,,2013-01-25 15:33:00,
2013-01-25 10:42:00,17.0,4.0,30.40,North,358,3.0,8.0,57,0.00,,,0.00,,2013-01-25 15:42:00,
2013-01-25 10:53:00,17.0,4.0,30.40,NW,318,6.0,8.0,56,0.00,,,0.00,,2013-01-25 15:53:00,
2013-01-25 11:03:00,17.0,4.0,30.40,NNW,336,3.0,9.0,55,0.00,,,0.00,,2013-01-25 16:03:00,
2013-01-25 11:12:00,17.0,4.0,30.40,NNW,336,3.0,9.0,55,0.00,,,0.00,,2013-01-25 16:12:00,
2013-01-25 11:23:00,18.0,3.0,30.40,NW,321,5.0,6.0,52,0.00,,,0.00,,2013-01-25 16:23:00,
2013-01-25 11:33:00,18.0,4.0,30.37,NW,316,3.0,5.0,54,0.00,,,0.00,,2013-01-25 16:33:00,
2013-01-25 11:43:00,18.0,4.0,30.37,NW,316,3.0,5.0,54,0.00,,,0.00,,2013-01-25 16:43:00,
2013-01-25 11:53:00,18.0,3.0,30.37,NNW,330,4.0,6.0,52,0.00,,,0.00,,2013-01-25 16:53:00,
2013-01-25 12:03:00,19.0,5.0,30.37,NW,320,0.0,5.0,54,0.00,,,0.00,,2013-01-25 17:03:00,
2013-01-25 12:12:00,19.0,5.0,30.37,NW,320,0.0,5.0,54,0.00,,,0.00,,2013-01-25 17:12:00,
2013-01-25 12:22:00,19.0,4.0,30.37,NW,308,2.0,6.0,52,0.00,,,0.00,,2013-01-25 17:22:00,
2013-01-25 12:33:00,20.0,4.0,30.37,North,359,3.0,8.0,50,0.00,,,0.00,,2013-01-25 17:33:00,
2013-01-25 12:43:00,20.0,4.0,30.37,North,359,3.0,8.0,50,0.00,,,0.00,,2013-01-25 17:43:00,
2013-01-25 12:53:00,20.0,5.0,30.37,NNW,345,2.0,3.0,51,0.00,,,0.00,,2013-01-25 17:53:00,
2013-01-25 13:03:00,20.0,4.0,30.37,NNE,27,1.0,5.0,50,0.00,,,0.00,,2013-01-25 18:03:00,
2013-01-25 13:12:00,20.0,4.0,30.37,NNE,27,1.0,5.0,50,0.00,,,0.00,,2013-01-25 18:12:00,
2013-01-25 13:23:00,22.0,6.0,30.37,West,267,2.0,3.0,49,0.00,,,0.00,,2013-01-25 18:23:00,
2013-01-25 13:33:00,22.0,6.0,30.37,West,267,2.0,3.0,49,0.00,,,0.00,,2013-01-25 18:33:00,
2013-01-25 13:42:00,22.0,6.0,30.37,West,267,2.0,3.0,49,0.00,,,0.00,,2013-01-25 18:42:00,
2013-01-25 13:53:00,23.0,7.0,30.37,South,180,2.0,5.0,49,0.00,,,0.00,,2013-01-25 18:53:00,
2013-01-25 14:03:00,23.0,7.0,30.37,South,180,2.0,5.0,49,0.00,,,0.00,,2013-01-25 19:03:00,
2013-01-25 14:12:00,23.0,7.0,30.37,South,180,2.0,5.0,49,0.00,,,0.00,,2013-01-25 19:12:00,
2013-01-25 14:23:00,23.0,6.0,30.37,SW,221,2.0,6.0,48,0.00,,,0.00,,2013-01-25 19:23:00,
2013-01-25 14:33:00,23.0,7.0,30.37,SW,230,3.0,6.0,49,0.00,,,0.00,,2013-01-25 19:33:00,
2013-01-25 14:42:00,23.0,7.0,30.37,SW,230,3.0,6.0,49,0.00,,,0.00,,2013-01-25 19:42:00,
2013-01-25 14:53:00,23.0,6.0,30.37,West,259,3.0,8.0,48,0.00,,,0.00,,2013-01-25 19:53:00,
2013-01-25 15:03:00,23.0,6.0,30.37,West,261,4.0,8.0,47,0.00,,,0.00,,2013-01-25 20:03:00,
2013-01-25 15:12:00,23.0,6.0,30.37,West,261,4.0,8.0,47,0.00,,,0.00,,2013-01-25 20:12:00,
2013-01-25 15:23:00,23.0,5.0,30.37,SW,236,3.0,9.0,46,0.00,,,0.00,,2013-01-25 20:23:00,
2013-01-25 15:32:00,23.0,5.0,30.37,WSW,256,6.0,9.0,45,0.00,,,0.00,,2013-01-25 20:32:00,
2013-01-25 15:42:00,23.0,5.0,30.37,WSW,256,6.0,9.0,45,0.00,,,0.00,,2013-01-25 20:42:00,
2013-01-25 15:53:00,23.0,5.0,30.37,WSW,240,3.0,9.0,46,0.00,,,0.00,,2013-01-25 20:53:00,
2013-01-25 16:02:00,23.0,5.0,30.37,WSW,240,3.0,9.0,46,0.00,,,0.00,,2013-01-25 21:02:00,
2013-01-25 16:12:00,23.0,5.0,30.37,WSW,240,3.0,9.0,46,0.00,,,0.00,,2013-01-25 21:12:00,
2013-01-25 16:23:00,23.0,5.0,30.37,West,280,5.0,9.0,46,0.00,,,0.00,,2013-01-25 21:23:00,
2013-01-25 16:33:00,23.0,5.0,30.37,West,280,5.0,9.0,46,0.00,,,0.00,,2013-01-25 21:33:00,
2013-01-25 16:42:00,23.0,5.0,30.37,West,280,5.0,9.0,46,0.00,,,0.00,,2013-01-25 21:42:00,
2013-01-25 16:52:00,23.0,7.0,30.37,SSW,212,6.0,12.0,49,0.00,,,0.00,,2013-01-25 21:52:00,
2013-01-25 17:03:00,23.0,6.0,30.37,SW,234,7.0,10.0,47,0.00,,,0.00,,2013-01-25 22:03:00,
2013-01-25 17:12:00,23.0,6.0,30.37,SW,234,7.0,10.0,47,0.00,,,0.00,,2013-01-25 22:12:00,
2013-01-25 17:23:00,23.0,7.0,30.37,WSW,244,5.0,10.0,49,0.00,,,0.00,,2013-01-25 22:23:00,
2013-01-25 17:33:00,23.0,7.0,30.37,WSW,244,5.0,10.0,49,0.00,,,0.00,,2013-01-25 22:33:00,
2013-01-25 17:42:00,23.0,7.0,30.37,WSW,244,5.0,10.0,49,0.00,,,0.00,,2013-01-25 22:42:00,
2013-01-25 17:53:00,20.0,15.0,30.37,WSW,253,5.0,14.0,80,0.00,,,0.00,,2013-01-25 22:53:00,
2013-01-25 18:02:00,20.0,16.0,30.37,WSW,254,5.0,10.0,84,0.00,,,0.00,,2013-01-25 23:02:00,
2013-01-25 18:12:00,20.0,16.0,30.37,WSW,254,5.0,10.0,84,0.00,,,0.00,,2013-01-25 23:12:00,
2013-01-25 18:22:00,20.0,16.0,30.37,SW,219,2.0,8.0,86,0.00,,,0.00,,2013-01-25 23:22:00,
2013-01-25 18:32:00,20.0,17.0,30.37,SW,215,2.0,5.0,87,0.00,,,0.00,,2013-01-25 23:32:00,
2013-01-25 18:42:00,20.0,17.0,30.37,SW,215,2.0,5.0,87,0.00,,,0.00,,2013-01-25 23:42:00,
2013-01-25 18:53:00,20.0,16.0,30.37,WSW,258,2.0,8.0,86,0.00,,,0.00,,2013-01-25 23:53:00,
2013-01-25 19:02:00,20.0,16.0,30.37,WSW,239,5.0,7.0,85,0.00,,,0.00,,2013-01-26 00:02:00,
2013-01-25 19:12:00,20.0,16.0,30.37,WSW,239,5.0,7.0,85,0.00,,,0.00,,2013-01-26 00:12:00,
2013-01-25 19:22:00,20.0,16.0,30.37,WSW,251,6.0,8.0,84,0.00,,,0.00,,2013-01-26 00:22:00,
2013-01-25 19:32:00,20.0,16.0,30.37,WSW,251,6.0,8.0,84,0.00,,,0.00,,2013-01-26 00:32:00,
2013-01-25 19:42:00,20.0,16.0,30.37,WSW,251,6.0,8.0,84,0.00,,,0.00,,2013-01-26 00:42:00,
2013-01-25 19:53:00,20.0,16.0,30.37,WSW,245,6.0,9.0,85,0.00,,,0.00,,2013-01-26 00:53:00,
2013-01-25 20:02:00,20.0,16.0,30.37,WSW,253,5.0,9.0,86,0.00,,,0.00,,2013-01-26 01:02:00,
2013-01-25 20:12:00,20.0,16.0,30.37,WSW,253,5.0,9.0,86,0.00,,,0.00,,2013-01-26 01:12:00,
2013-01-25 20:22:00,20.0,17.0,30.37,West,270,5.0,10.0,87,0.00,,,0.00,,2013-01-26 01:22:00,
2013-01-25 20:32:00,20.0,17.0,30.37,WNW,283,3.0,7.0,87,0.00,,,0.00,,2013-01-26 01:32:00,
2013-01-25 20:42:00,20.0,17.0,30.37,WNW,283,3.0,7.0,87,0.00,,,0.00,,2013-01-26 01:42:00,
2013-01-25 20:52:00,20.0,17.0,30.37,West,270,4.0,10.0,87,0.00,,,0.00,,2013-01-26 01:52:00,
2013-01-25 21:02:00,20.0,16.0,30.37,WSW,256,8.0,12.0,86,0.00,,,0.00,,2013-01-26 02:02:00,
2013-01-25 21:11:00,20.0,16.0,30.37,WSW,256,8.0,12.0,86,0.00,,,0.00,,2013-01-26 02:11:00,
2013-01-25 21:22:00,20.0,16.0,30.37,WNW,287,5.0,12.0,84,0.00,,,0.00,,2013-01-26 02:22:00,
2013-01-25 21:32:00,20.0,16.0,30.37,WSW,254,3.0,12.0,84,0.00,,,0.00,,2013-01-26 02:32:00,
2013-01-25 21:42:00,20.0,16.0,30.37,WSW,254,3.0,12.0,84,0.00,,,0.00,,2013-01-26 02:42:00,
2013-01-25 21:52:00,20.0,16.0,30.37,West,274,6.0,9.0,83,0.00,,,0.00,,2013-01-26 02:52:00,
2013-01-25 22:01:00,20.0,15.0,30.37,WSW,256,6.0,10.0,79,0.00,,,0.00,,2013-01-26 03:01:00,
2013-01-25 22:02:00,20.0,15.0,30.37,WNW,282,3.0,10.0,82,0.00,,,0.00,,2013-01-26 03:02:00,
2013-01-25 22:12:00,20.0,15.0,30.37,WNW,282,3.0,10.0,82,0.00,,,0.00,,2013-01-26 03:12:00,
2013-01-25 22:22:00,20.0,15.0,30.37,WSW,256,6.0,10.0,79,0.00,,,0.00,,2013-01-26 03:22:00,
2013-01-25 22:32:00,20.0,15.0,30.37,WSW,256,6.0,10.0,79,0.00,,,0.00,,2013-01-26 03:32:00,
2013-01-25 22:43:00,20.0,15.0,30.37,WSW,256,6.0,10.0,79,0.00,,,0.00,,2013-01-26 03:43:00,
2013-01-25 22:52:00,20.0,15.0,30.37,WSW,256,6.0,10.0,79,0.00,,,0.00,,2013-01-26 03:52:00,
2013-01-25 23:21:00,20.0,14.0,30.37,West,267,3.0,9.0,77,0.00,,,0.00,,2013-01-26 04:21:00,
2013-01-25 23:32:00,20.0,14.0,30.37,West,267,3.0,9.0,77,0.00,,,0.00,,2013-01-26 04:32:00,
2013-01-25 23:43:00,20.0,14.0,30.37,West,267,3.0,9.0,77,0.00,,,0.00,,2013-01-26 04:43:00,
2013-01-25 23:52:00,20.0,14.0,30.37,NW,315,8.0,10.0,76,0.00,,,0.00,,2013-01-26 04:52:00,